Voltar ao catálogo

ATLAS 5 CENTAUR DEB

AtivoHEO
NORAD 44666·DEBRIS·🇺🇸 United States

Lançado Oct 17, 2018 de Cape Canaveral Space Force Station

Loading…

Próximas Passagens (próximas 24 horas)

TLE

AtualizadoSource: Space-Track

Época: Sep 9, 2026, 04:40 UTC

1 44666U 18079AC  26252.19497857 -.00000189  00000-0  00000-0 0  9997
2 44666  13.1624  22.6271 4455837 350.3014   3.2211  1.90649430 50625

Acompanhe ATLAS 5 CENTAUR DEB em tempo real com AllMySat

Download on the App Store